TimeEDT,TemperatureF,Dew PointF,Humidity,Sea Level PressureIn,VisibilityMPH,Wind Direction,Wind SpeedMPH,Gust SpeedMPH,PrecipitationIn,Events,Conditions,WindDirDegrees,DateUTC
12:15 AM,69.8,64.4,83,29.96,10.0,SSW,5.8,-,N/A,,Clear,210,2013-06-02 04:15:00
12:35 AM,69.8,64.4,83,29.96,10.0,SSW,5.8,-,N/A,,Clear,210,2013-06-02 04:35:00
12:55 AM,69.8,64.4,83,29.95,10.0,SSW,4.6,-,N/A,,Clear,210,2013-06-02 04:55:00
1:15 AM,69.8,64.4,83,29.95,10.0,SSW,5.8,-,N/A,,Clear,210,2013-06-02 05:15:00
1:35 AM,69.8,64.4,83,29.95,10.0,SW,3.5,-,N/A,,Clear,230,2013-06-02 05:35:00
1:55 AM,69.8,64.4,83,29.94,10.0,SSW,3.5,-,N/A,,Clear,210,2013-06-02 05:55:00
2:15 AM,69.8,64.4,83,29.94,10.0,SSW,3.5,-,N/A,,Clear,210,2013-06-02 06:15:00
2:55 AM,68.0,64.4,88,29.93,10.0,SW,3.5,-,N/A,,Clear,220,2013-06-02 06:55:00
3:15 AM,68.0,64.4,88,29.92,10.0,SSW,4.6,-,N/A,,Clear,210,2013-06-02 07:15:00
3:35 AM,68.0,64.4,88,29.93,10.0,SSW,4.6,-,N/A,,Clear,200,2013-06-02 07:35:00
3:55 AM,68.0,64.4,88,29.92,10.0,SW,3.5,-,N/A,,Clear,220,2013-06-02 07:55:00
4:15 AM,68.0,64.4,88,29.92,10.0,SW,3.5,-,N/A,,Clear,230,2013-06-02 08:15:00
4:35 AM,66.2,64.4,94,29.93,10.0,Calm,Calm,-,N/A,,Clear,0,2013-06-02 08:35:00
4:55 AM,66.2,62.6,88,29.93,10.0,Calm,Calm,-,N/A,,Clear,0,2013-06-02 08:55:00
5:15 AM,66.2,62.6,88,29.93,10.0,SSW,3.5,-,N/A,,Clear,200,2013-06-02 09:15:00
5:35 AM,66.2,62.6,88,29.92,8.0,Calm,Calm,-,N/A,,Clear,0,2013-06-02 09:35:00
5:45 AM,66.2,62.6,88,29.92,10.0,SSW,5.8,-,N/A,,Clear,200,2013-06-02 09:45:00
6:45 AM,68.0,64.4,88,29.92,10.0,SSW,5.8,-,N/A,,Clear,200,2013-06-02 10:45:00
7:45 AM,69.8,64.4,83,29.92,10.0,SSW,5.8,-,N/A,,Clear,200,2013-06-02 11:45:00
8:45 AM,73.4,66.2,78,29.92,10.0,SSW,5.8,-,N/A,,Clear,200,2013-06-02 12:45:00
9:45 AM,75.2,66.2,73,29.89,10.0,SW,11.5,-,N/A,,Clear,220,2013-06-02 13:45:00
10:45 AM,78.8,68.0,69,29.88,10.0,SSW,11.5,19.6,N/A,,Clear,210,2013-06-02 14:45:00
11:45 AM,78.8,69.8,74,29.89,10.0,SW,11.5,17.3,N/A,,Partly Cloudy,220,2013-06-02 15:45:00
12:45 PM,80.6,68.0,65,29.88,10.0,SW,11.5,23.0,N/A,,Partly Cloudy,220,2013-06-02 16:45:00
1:45 PM,82.4,69.8,66,29.85,10.0,SSW,11.5,23.0,N/A,,Mostly Cloudy,200,2013-06-02 17:45:00
2:45 PM,82.4,69.8,66,29.85,10.0,SSW,11.5,23.0,N/A,,Scattered Clouds,200,2013-06-02 18:45:00
3:45 PM,82.4,69.8,66,29.84,10.0,South,12.7,20.7,N/A,,Partly Cloudy,190,2013-06-02 19:45:00
4:45 PM,78.8,68.0,69,29.83,10.0,SSW,13.8,20.7,N/A,,Scattered Clouds,200,2013-06-02 20:45:00
5:45 PM,78.8,66.2,65,29.81,10.0,SSW,9.2,20.7,N/A,,Partly Cloudy,200,2013-06-02 21:45:00
6:45 PM,75.2,66.2,73,29.83,10.0,SSW,9.2,16.1,N/A,,Partly Cloudy,200,2013-06-02 22:45:00
7:45 PM,73.4,64.4,73,29.84,10.0,SSW,6.9,-,N/A,,Partly Cloudy,200,2013-06-02 23:45:00
8:45 PM,71.6,64.4,78,29.86,10.0,SSW,6.9,-,N/A,,Mostly Cloudy,210,2013-06-03 00:45:00
9:15 PM,71.6,64.4,78,29.86,10.0,SSW,5.8,-,N/A,,Overcast,210,2013-06-03 01:15:00
9:35 PM,71.6,64.4,78,29.87,10.0,SW,4.6,-,N/A,,Mostly Cloudy,220,2013-06-03 01:35:00
9:55 PM,69.8,64.4,83,29.87,10.0,SSW,5.8,-,N/A,,Overcast,200,2013-06-03 01:55:00
10:15 PM,69.8,64.4,83,29.87,10.0,SSW,4.6,-,N/A,,Overcast,200,2013-06-03 02:15:00
10:35 PM,69.8,64.4,83,29.87,10.0,SSW,4.6,-,N/A,,Mostly Cloudy,210,2013-06-03 02:35:00
10:55 PM,69.8,62.6,78,29.87,10.0,South,4.6,-,N/A,,Partly Cloudy,190,2013-06-03 02:55:00
11:15 PM,69.8,62.6,78,29.86,10.0,Calm,Calm,-,N/A,,Scattered Clouds,0,2013-06-03 03:15:00
11:35 PM,69.8,62.6,78,29.86,10.0,South,5.8,-,N/A,,Scattered Clouds,190,2013-06-03 03:35:00
11:55 PM,68.0,62.6,83,29.87,10.0,SSE,3.5,-,N/A,,Mostly Cloudy,160,2013-06-03 03:55:00